FloripaSat 1
1 44885U 19093G   25208.82023769  .00004574  00000-0  38294-3 0  9994
2 44885  97.8166 296.5341 0011358  45.8325 314.3829 14.98899065303974
RS-44
1 44909U 19096E   25208.47889577  .00000001  00000-0 -41893-4 0  9994
2 44909  82.5205 195.4542 0217332 183.2807 176.6883 12.79742217260815
UPMSat 2
1 46276U 20061E   25208.75106610  .00095144  00000-0  62454-3 0  9994
2 46276  97.2395 284.9683 0001314 154.0415 206.0916 15.75452661273032
SALSAT
1 46495U 20068K   25208.84036909  .00007554  00000-0  32103-3 0  9993
2 46495  97.8634 189.1254 0011024   4.7601 355.3737 15.23310591265874
CubeSX-Sirius-HSE
1 47951U 21022V   25157.62701764  .07883385  25648-5  89537-3 0  9993
2 47951  97.4004  72.1904 0010275 223.9924 136.0557 16.36879307233400
CubeSX-HSE
1 47952U 21022W   25157.69972699  .06655353  25454-5  93288-3 0  9992
2 47952  97.3980  72.5414 0010307 219.3637 140.6911 16.34906352233436
GRBAlpha
1 47959U 21022AD  25160.45426279  .07940347  25506-5  90589-3 0  9995
2 47959  97.3899  75.6235 0011032 227.2558 132.7812 16.36806138232695
TUBIN
1 48900U 21059X   25208.82302361  .00056669  00000-0  58918-3 0  9996
2 48900  97.6768  22.1156 0003242  65.0990 295.0605 15.64431790227573
LEDSAT
1 49069U 21073D   25208.81131273  .00085664  00000-0  79300-3 0  9995
2 49069  97.3855 292.5789 0008367 245.7104 114.3283 15.67207642218975
CUTE
1 49263U 21088D   25208.45641168  .00014724  00000-0  27191-3 0  9996
2 49263  97.4484 286.1578 0008116  72.1520 288.0615 15.49156469211837
TeikyoSat 4
1 49396U 21102B   25208.60081899  .00001856  00000-0  12506-3 0  9992
2 49396  97.4069 245.2935 0011665 335.7128  24.3549 15.07807724203784
Z-Sat
1 49399U 21102E   25208.84754164  .00004229  00000-0  23094-3 0  9994
2 49399  97.3768 248.9301 0016324 299.0828  60.8769 15.14746992204287
KOSEN 1
1 49402U 21102H   25208.71020264  .00006165  00000-0  28189-3 0  9993
2 49402  97.3670 252.5812 0013912 269.7521  90.2121 15.20820556204607
HO-113
1 50466U 21131B   25208.88570724  .00000530  00000-0  17932-3 0  9990
2 50466  98.5106 298.0034 0004038   9.2711 350.8552 14.40860463188408
Foresail-1
1 52766U 22057AL  25176.64799660  .13857605  27391-5  25307-3 0  9992
2 52766  97.5832 331.2310 0012137 233.7199 258.4922 16.46795272172486
SNUGLITE 2
1 52899U 22065F   25208.83569280  .00001105  00000-0  22334-3 0  9990
2 52899  98.1750 350.3570 0006814 330.7185  29.3634 14.63304606163543
UmKA 1 (RS40S)
1 57172U 23091G   25208.87010315  .00005255  00000-0  27799-3 0  9993
2 57172  97.5546 264.0064 0014916 161.7493 198.4277 15.15794885114797
CubeBel-2 (EU11S)
1 57175U 23091K   25208.83508308  .00009412  00000-0  43856-3 0  9997
2 57175  97.5544 265.4208 0012544 167.3701 192.7851 15.20047311114888
VERONIKA
1 58261U 23174F   25208.83139300  .00392115  59384-4  13083-2 0  9994
2 58261  97.4035 298.4879 0008175 236.5474 123.5018 15.90143994 96292
ENSO
1 58470U 23185J   25208.86518687  .00064143  00000-0  76561-3 0  9995
2 58470  97.3697 285.6949 0005819 247.8288 112.2352 15.60824816 92550
EIRSAT-1
1 58472U 23185L   25208.87183143  .00196389  00000-0  10562-2 0  9999
2 58472  97.3620 288.6544 0006345 240.1073 119.9564 15.79655919 92752
SONATE-2
1 59112U 24043Q   25208.62487007  .00016522  00000-0  45655-3 0  9996
2 59112  97.5196 340.8263 0009603 305.5028  54.5319 15.37078351 77713
MO-122
1 60209U 24125G   25208.56177846  .00017005  00000-0  46112-3 0  9992
2 60209  97.2743  59.6780 0016924 329.4424  30.5833 15.37550931 59326
GRBBeta
1 60237U 24128C   25208.50990993  .00003386  00000-0  25817-3 0  9992
2 60237  61.9909 272.3980 0055057  67.7082 292.9833 15.02969647 57408
Curium One
1 60242U 24128H   25208.66287978  .00005640  00000-0  38985-3 0  9992
2 60242  61.9802 269.4226 0055094  64.0266 296.6487 15.05688710 57476
ROBUSTA-3A
1 60243U 24128J   25208.87996781  .00005507  00000-0  38631-3 0  9995
2 60243  61.9874 269.6535 0054128  61.7250 298.9290 15.05212357 57494
CatSat
1 60246U 24125J   25208.54135893  .00015746  00000-0  51123-3 0  9995
2 60246  97.2549  58.3121 0039940 283.5935  76.0859 15.31235418 57321
HYPERVIEW-1G (RS66S)
1 61772U 24199AP  25208.87496856  .00021039  00000-0  57773-3 0  9995
2 61772  97.3462  77.6707 0013497  28.1952 332.0021 15.37172319 84373
AO-123
1 61781U 24199AY  25208.88985075  .00006421  00000-0  23048-3 0  9998
2 61781  97.3481  76.0239 0016467  32.6051 327.6202 15.28899736 84265
ZIMSAT 2
1 61783U 24199BA  25208.87413222  .00039533  00000-0  87061-3 0  9994
2 61783  97.3431  78.6936 0012538  25.5974 334.5892 15.43762924 87590
HADES-R (SO-124)
1 62690U 25009CK  25208.20583671  .00038061  00000-0  12294-2 0  9996
2 62690  97.4074 288.9153 0001742 254.9358 105.1691 15.32006675 29438
HYDRA-T
1 62692U 25009CM  25208.44349546  .00038421  00000-0  12273-2 0  9992
2 62692  97.4079 289.2073 0001801 251.9515 108.1531 15.32361184 29477
JINJUSat 1B
1 63210U 25052A   25208.61864610  .00010396  00000-0  46446-3 0  9991
2 63210  97.4353 102.1473 0005533 135.6016 224.5664 15.21515087 20557
NUSHSAT 1
1 63211U 25052B   25208.60493209  .00012042  00000-0  53235-3 0  9997
2 63211  97.4340 102.1478 0005385 139.8316 220.3319 15.21839102 20551
TEVEL2-4
1 63213U 25052D   25208.62847467  .00011327  00000-0  50596-3 0  9992
2 63213  97.4259 101.9728 0004157 147.8216 212.3274 15.21504115 20555
TEVEL2-5
1 63214U 25052E   25208.69552953  .00011334  00000-0  50664-3 0  9997
2 63214  97.4259 102.0365 0004165 147.7997 212.3494 15.21479282 20560
TEVEL2-6
1 63215U 25052F   25208.69894276  .00011363  00000-0  50851-3 0  9995
2 63215  97.4264 102.0334 0004178 149.6687 210.4791 15.21439196 20563
TEVEL2-1
1 63217U 25052H   25208.45394381  .00011796  00000-0  53143-3 0  9990
2 63217  97.4236 101.7068 0003822 162.8740 197.2626 15.21200719 20528
TEVEL2-2
1 63218U 25052J   25208.25685310  .00011558  00000-0  52080-3 0  9999
2 63218  97.4235 101.5137 0003844 164.4304 195.7051 15.21199170 20490
TEVEL2-3
1 63219U 25052K   25208.58607356  .00012090  00000-0  54460-3 0  9996
2 63219  97.4235 101.8369 0003874 163.3112 196.8252 15.21200124 20542
TEVEL2-8
1 63237U 25052AD  25208.62413504  .00010358  00000-0  48401-3 0  9994
2 63237  97.4301 101.7460 0007423 192.5977 167.5073 15.19960261 20531
TEVEL2-9
1 63238U 25052AE  25208.62852911  .00010375  00000-0  48579-3 0  9999
2 63238  97.4304 101.7431 0007493 192.8979 167.2066 15.19888951 20539
TEVEL2-7
1 63239U 25052AF  25208.63153245  .00010456  00000-0  49000-3 0  9995
2 63239  97.4304 101.7375 0007455 193.4500 166.6537 15.19857127 20539
HYDRA-W
1 63490U 25052BL  25208.59991791  .00027017  00000-0  10702-2 0  9992
2 63490  97.4247 102.2978 0010997 191.3135 168.7857 15.25333505 20573
HADES-ICM (SO-125)
1 63492U 25052BN  25208.69584795  .00024301  00000-0  97933-3 0  9992
2 63492  97.4252 102.3325 0011087 195.1951 164.8955 15.24777843 20580
